Time,TemperatureF,DewpointF,PressureIn,WindDirection,WindDirectionDegrees,WindSpeedMPH,WindSpeedGustMPH,Humidity,HourlyPrecipIn,Conditions,Clouds,dailyrainin,SoftwareType,DateUTC
2013-09-01 00:00:00,70.8,66.4,31.52,WNW,286,10.0,17.0,86,0.00,,---,0.16,VWS V14.00,2013-09-01 04:00:00,
2013-09-01 00:01:00,70.8,66.4,31.52,WNW,292,5.0,17.0,86,0.00,,---,0.16,VWS V14.00,2013-09-01 04:01:00,
2013-09-01 00:03:00,70.7,66.7,31.52,WSW,238,3.0,17.0,87,0.00,,---,0.16,VWS V14.00,2013-09-01 04:03:00,
2013-09-01 00:04:00,70.7,66.7,31.52,NW,304,5.0,17.0,87,0.00,,---,0.16,VWS V14.00,2013-09-01 04:04:00,
2013-09-01 00:06:00,70.6,66.6,31.52,West,263,4.0,17.0,87,0.00,,---,0.16,VWS V14.00,2013-09-01 04:06:00,
2013-09-01 00:12:00,70.8,66.7,31.52,SSE,160,6.0,11.0,87,0.00,,---,0.00,VWS V14.00,2013-09-01 04:12:00,
2013-09-01 00:15:00,71.1,66.7,31.52,SSW,205,3.0,11.0,86,0.00,,---,0.00,VWS V14.00,2013-09-01 04:15:00,
2013-09-01 00:20:00,71.2,66.8,31.52,South,183,7.0,11.0,86,0.00,,---,0.00,VWS V14.00,2013-09-01 04:20:00,
2013-09-01 00:25:00,71.1,67.0,31.52,SW,217,5.0,11.0,87,0.00,,---,0.00,VWS V14.00,2013-09-01 04:25:00,
2013-09-01 00:30:00,71.2,67.1,31.52,South,181,4.0,11.0,87,0.00,,---,0.00,VWS V14.00,2013-09-01 04:30:00,
2013-09-01 00:35:00,71.2,67.1,31.52,South,181,6.0,11.0,87,0.00,,---,0.00,VWS V14.00,2013-09-01 04:35:00,
2013-09-01 00:40:00,71.3,67.2,31.52,South,187,7.0,7.0,87,0.00,,---,0.00,VWS V14.00,2013-09-01 04:40:00,
2013-09-01 00:45:00,71.0,66.9,31.52,SSW,202,8.0,10.0,87,0.00,,---,0.00,VWS V14.00,2013-09-01 04:45:00,
2013-09-01 00:50:00,71.0,66.9,31.52,South,184,11.0,16.0,87,0.00,,---,0.00,VWS V14.00,2013-09-01 04:50:00,
2013-09-01 00:55:00,71.2,67.1,31.52,SSE,168,9.0,16.0,87,0.00,,---,0.00,VWS V14.00,2013-09-01 04:55:00,
2013-09-01 01:00:00,71.8,67.7,31.52,SSE,167,13.0,17.0,87,0.00,,---,0.00,VWS V14.00,2013-09-01 05:00:00,
2013-09-01 01:05:00,72.2,67.8,31.52,South,182,14.0,17.0,86,0.00,,---,0.00,VWS V14.00,2013-09-01 05:05:00,
2013-09-01 01:10:00,71.5,66.8,31.52,SSW,195,13.0,19.0,85,0.00,,---,0.00,VWS V14.00,2013-09-01 05:10:00,
2013-09-01 01:15:00,71.3,66.9,31.52,South,182,12.0,19.0,86,0.00,,---,0.01,VWS V14.00,2013-09-01 05:15:00,
2013-09-01 01:20:00,71.4,67.0,31.52,SSW,202,6.0,19.0,86,0.00,,---,0.01,VWS V14.00,2013-09-01 05:20:00,
2013-09-01 01:26:00,71.4,67.3,31.52,South,184,5.0,19.0,87,0.00,,---,0.01,VWS V14.00,2013-09-01 05:26:00,
2013-09-01 01:31:00,71.5,67.8,31.52,South,181,12.0,19.0,88,0.00,,---,0.01,VWS V14.00,2013-09-01 05:31:00,
2013-09-01 01:36:00,71.5,67.8,31.52,South,175,9.0,19.0,88,0.00,,---,0.01,VWS V14.00,2013-09-01 05:36:00,
2013-09-01 01:41:00,71.3,67.6,31.52,South,184,10.0,19.0,88,0.00,,---,0.01,VWS V14.00,2013-09-01 05:41:00,
2013-09-01 01:46:00,71.3,67.6,31.52,SE,146,10.0,19.0,88,0.00,,---,0.01,VWS V14.00,2013-09-01 05:46:00,
2013-09-01 01:51:00,71.3,67.6,31.52,SSE,153,14.0,19.0,88,0.00,,---,0.01,VWS V14.00,2013-09-01 05:51:00,
2013-09-01 01:56:00,71.2,67.5,31.52,South,180,5.0,19.0,88,0.00,,---,0.01,VWS V14.00,2013-09-01 05:56:00,
2013-09-01 02:02:00,71.1,67.4,31.52,SSW,205,3.0,19.0,88,0.00,,---,0.01,VWS V14.00,2013-09-01 06:02:00,
2013-09-01 02:07:00,70.8,67.1,31.52,South,172,7.0,19.0,88,0.00,,---,0.01,VWS V14.00,2013-09-01 06:07:00,
2013-09-01 02:12:00,70.8,67.1,31.52,South,179,6.0,14.0,88,0.00,,---,0.01,VWS V14.00,2013-09-01 06:12:00,
2013-09-01 02:17:00,70.9,67.2,31.52,South,169,3.0,14.0,88,0.00,,---,0.01,VWS V14.00,2013-09-01 06:17:00,
2013-09-01 02:22:00,71.0,67.3,31.52,South,183,7.0,14.0,88,0.00,,---,0.01,VWS V14.00,2013-09-01 06:22:00,
2013-09-01 02:27:00,71.1,67.7,31.52,South,174,11.0,20.0,89,0.00,,---,0.01,VWS V14.00,2013-09-01 06:27:00,
2013-09-01 02:32:00,71.3,67.9,31.09,South,173,16.0,20.0,89,0.00,,---,0.01,VWS V14.00,2013-09-01 06:32:00,
2013-09-01 02:37:00,71.3,67.9,31.09,South,173,13.0,23.0,89,0.00,,---,0.01,VWS V14.00,2013-09-01 06:37:00,
2013-09-01 02:42:00,71.3,67.6,31.09,SW,217,4.0,18.0,88,0.00,,---,0.01,VWS V14.00,2013-09-01 06:42:00,
2013-09-01 02:47:00,71.1,67.4,31.09,SW,215,5.0,18.0,88,0.00,,---,0.01,VWS V14.00,2013-09-01 06:47:00,
2013-09-01 02:52:00,71.0,67.3,31.09,SSW,205,0.0,18.0,88,0.00,,---,0.01,VWS V14.00,2013-09-01 06:52:00,
2013-09-01 02:57:00,71.1,67.4,31.09,SSE,153,13.0,18.0,88,0.00,,---,0.01,VWS V14.00,2013-09-01 06:57:00,
2013-09-01 03:02:00,71.6,67.9,31.09,South,178,15.0,21.0,88,0.00,,---,0.01,VWS V14.00,2013-09-01 07:02:00,
2013-09-01 03:07:00,71.5,67.4,31.09,SSW,194,13.0,21.0,87,0.00,,---,0.01,VWS V14.00,2013-09-01 07:07:00,
2013-09-01 03:12:00,71.3,67.2,31.09,SSW,209,3.0,13.0,87,0.00,,---,0.01,VWS V14.00,2013-09-01 07:12:00,
2013-09-01 03:17:00,71.1,67.4,31.09,SW,229,2.0,13.0,88,0.00,,---,0.01,VWS V14.00,2013-09-01 07:17:00,
2013-09-01 03:22:00,71.1,67.4,31.09,South,189,15.0,15.0,88,0.00,,---,0.01,VWS V14.00,2013-09-01 07:22:00,
2013-09-01 03:27:00,71.6,67.9,31.09,WSW,256,0.0,16.0,88,0.00,,---,0.01,VWS V14.00,2013-09-01 07:27:00,
2013-09-01 03:32:00,71.3,67.2,31.09,SW,231,6.0,16.0,87,0.00,,---,0.01,VWS V14.00,2013-09-01 07:32:00,
2013-09-01 03:37:00,71.1,67.4,31.09,SSW,209,6.0,6.0,88,0.00,,---,0.01,VWS V14.00,2013-09-01 07:37:00,
2013-09-01 03:42:00,71.2,67.5,31.09,SW,233,4.0,8.0,88,0.00,,---,0.01,VWS V14.00,2013-09-01 07:42:00,
2013-09-01 03:47:00,71.0,67.3,31.09,SW,229,0.0,8.0,88,0.00,,---,0.01,VWS V14.00,2013-09-01 07:47:00,
2013-09-01 03:52:00,70.8,67.1,31.09,SW,228,4.0,8.0,88,0.00,,---,0.01,VWS V14.00,2013-09-01 07:52:00,
2013-09-01 03:58:00,70.7,67.0,31.09,SW,221,0.0,8.0,88,0.00,,---,0.01,VWS V14.00,2013-09-01 07:58:00,
2013-09-01 04:03:00,71.1,67.7,31.09,SE,146,3.0,8.0,89,0.00,,---,0.01,VWS V14.00,2013-09-01 08:03:00,
2013-09-01 04:08:00,71.7,68.0,31.09,ESE,113,10.0,11.0,88,0.00,,---,0.01,VWS V14.00,2013-09-01 08:08:00,
2013-09-01 04:13:00,71.6,67.9,31.09,ESE,119,9.0,11.0,88,0.00,,---,0.01,VWS V14.00,2013-09-01 08:13:00,
2013-09-01 04:18:00,71.3,67.6,31.09,ESE,107,7.0,11.0,88,0.00,,---,0.01,VWS V14.00,2013-09-01 08:18:00,
2013-09-01 04:23:00,71.2,67.5,31.09,East,101,9.0,11.0,88,0.00,,---,0.01,VWS V14.00,2013-09-01 08:23:00,
2013-09-01 04:28:00,71.0,67.3,31.09,ESE,103,4.0,11.0,88,0.00,,---,0.01,VWS V14.00,2013-09-01 08:28:00,
2013-09-01 04:33:00,71.0,67.3,31.09,SE,132,5.0,11.0,88,0.00,,---,0.01,VWS V14.00,2013-09-01 08:33:00,
2013-09-01 04:38:00,71.0,67.3,31.09,SSE,150,3.0,4.0,88,0.00,,---,0.01,VWS V14.00,2013-09-01 08:38:00,
2013-09-01 04:43:00,71.1,67.4,31.09,South,171,0.0,7.0,88,0.00,,---,0.01,VWS V14.00,2013-09-01 08:43:00,
2013-09-01 04:48:00,71.0,67.3,31.09,South,171,2.0,7.0,88,0.00,,---,0.01,VWS V14.00,2013-09-01 08:48:00,
2013-09-01 04:53:00,71.0,67.3,31.09,South,171,1.0,7.0,88,0.00,,---,0.01,VWS V14.00,2013-09-01 08:53:00,
2013-09-01 04:58:00,70.8,67.1,31.09,South,172,4.0,7.0,88,0.00,,---,0.01,VWS V14.00,2013-09-01 08:58:00,
2013-09-01 05:03:00,70.6,66.9,31.09,South,172,2.0,7.0,88,0.00,,---,0.01,VWS V14.00,2013-09-01 09:03:00,
2013-09-01 05:08:00,70.6,66.9,31.09,South,173,0.0,5.0,88,0.00,,---,0.01,VWS V14.00,2013-09-01 09:08:00,
2013-09-01 05:13:00,70.7,67.0,31.09,WSW,244,2.0,8.0,88,0.00,,---,0.01,VWS V14.00,2013-09-01 09:13:00,
2013-09-01 05:18:00,70.6,66.9,31.09,SSW,207,0.0,8.0,88,0.00,,---,0.01,VWS V14.00,2013-09-01 09:18:00,
2013-09-01 05:23:00,70.5,66.8,31.09,SSW,206,0.0,8.0,88,0.00,,---,0.01,VWS V14.00,2013-09-01 09:23:00,
2013-09-01 05:28:00,70.3,66.6,31.09,SSW,207,1.0,8.0,88,0.00,,---,0.01,VWS V14.00,2013-09-01 09:28:00,
2013-09-01 05:33:00,70.1,66.4,31.09,SSW,207,0.0,8.0,88,0.00,,---,0.01,VWS V14.00,2013-09-01 09:33:00,
2013-09-01 05:38:00,70.1,66.4,31.09,SSW,209,0.0,4.0,88,0.00,,---,0.01,VWS V14.00,2013-09-01 09:38:00,
2013-09-01 05:43:00,70.0,66.6,31.09,SSW,213,0.0,5.0,89,0.00,,---,0.01,VWS V14.00,2013-09-01 09:43:00,
2013-09-01 05:48:00,69.9,66.5,31.09,SSW,213,0.0,5.0,89,0.00,,---,0.01,VWS V14.00,2013-09-01 09:48:00,
2013-09-01 05:54:00,69.9,66.5,31.09,SSW,213,1.0,5.0,89,0.00,,---,0.01,VWS V14.00,2013-09-01 09:54:00,
2013-09-01 05:59:00,69.9,66.5,31.09,SSW,213,0.0,5.0,89,0.00,,---,0.01,VWS V14.00,2013-09-01 09:59:00,
2013-09-01 06:04:00,69.8,66.4,31.09,SSW,213,2.0,5.0,89,0.00,,---,0.01,VWS V14.00,2013-09-01 10:04:00,
2013-09-01 06:09:00,69.7,66.6,31.09,SSW,213,0.0,0.0,90,0.00,,---,0.01,VWS V14.00,2013-09-01 10:09:00,
2013-09-01 06:14:00,69.8,66.7,31.09,SW,215,0.0,5.0,90,0.00,,---,0.01,VWS V14.00,2013-09-01 10:14:00,
2013-09-01 06:19:00,69.8,66.7,31.09,SW,215,0.0,5.0,90,0.00,,---,0.01,VWS V14.00,2013-09-01 10:19:00,
2013-09-01 06:24:00,69.8,66.7,31.09,SW,215,2.0,5.0,90,0.00,,---,0.01,VWS V14.00,2013-09-01 10:24:00,
2013-09-01 06:29:00,69.7,66.6,31.09,SSW,194,0.0,5.0,90,0.00,,---,0.01,VWS V14.00,2013-09-01 10:29:00,
2013-09-01 06:34:00,69.7,66.6,31.09,SSW,198,3.0,5.0,90,0.00,,---,0.01,VWS V14.00,2013-09-01 10:34:00,
2013-09-01 06:39:00,69.6,66.5,31.09,SSW,198,0.0,1.0,90,0.00,,---,0.02,VWS V14.00,2013-09-01 10:39:00,
2013-09-01 06:44:00,69.6,66.2,31.09,SSW,198,0.0,3.0,89,0.00,,---,0.02,VWS V14.00,2013-09-01 10:44:00,
2013-09-01 06:49:00,69.4,66.0,31.09,SSW,198,0.0,3.0,89,0.00,,---,0.02,VWS V14.00,2013-09-01 10:49:00,
2013-09-01 06:54:00,69.4,66.3,31.09,SSW,198,0.0,4.0,90,0.00,,---,0.02,VWS V14.00,2013-09-01 10:54:00,
2013-09-01 06:59:00,69.5,66.4,31.09,SSW,203,4.0,5.0,90,0.00,,---,0.02,VWS V14.00,2013-09-01 10:59:00,
2013-09-01 07:04:00,69.6,66.5,31.09,SSW,211,11.0,14.0,90,0.00,,---,0.02,VWS V14.00,2013-09-01 11:04:00,
2013-09-01 07:09:00,70.0,66.9,31.09,South,175,0.0,5.0,90,0.00,,---,0.02,VWS V14.00,2013-09-01 11:09:00,
2013-09-01 07:14:00,70.0,66.6,31.09,SSW,202,6.0,8.0,89,0.00,,---,0.02,VWS V14.00,2013-09-01 11:14:00,
2013-09-01 07:19:00,70.0,66.6,31.09,SSW,200,0.0,8.0,89,0.00,,---,0.02,VWS V14.00,2013-09-01 11:19:00,
2013-09-01 07:24:00,69.9,66.5,31.09,SW,232,3.0,11.0,89,0.00,,---,0.02,VWS V14.00,2013-09-01 11:24:00,
2013-09-01 07:29:00,70.0,66.6,31.09,South,186,0.0,11.0,89,0.00,,---,0.02,VWS V14.00,2013-09-01 11:29:00,
2013-09-01 07:34:00,70.0,66.6,31.09,South,187,0.0,11.0,89,0.00,,---,0.02,VWS V14.00,2013-09-01 11:34:00,
2013-09-01 07:39:00,69.9,66.5,31.09,South,187,0.0,0.0,89,0.00,,---,0.02,VWS V14.00,2013-09-01 11:39:00,
2013-09-01 07:44:00,69.9,66.5,31.09,South,187,0.0,3.0,89,0.00,,---,0.02,VWS V14.00,2013-09-01 11:44:00,
2013-09-01 07:50:00,69.8,66.4,31.09,South,187,0.0,3.0,89,0.00,,---,0.02,VWS V14.00,2013-09-01 11:50:00,
2013-09-01 07:55:00,69.8,66.4,31.09,South,187,0.0,3.0,89,0.00,,---,0.02,VWS V14.00,2013-09-01 11:55:00,
2013-09-01 08:00:00,69.8,66.4,31.09,South,187,0.0,3.0,89,0.00,,---,0.02,VWS V14.00,2013-09-01 12:00:00,
2013-09-01 08:05:00,69.8,66.4,31.09,South,187,0.0,3.0,89,0.00,,---,0.02,VWS V14.00,2013-09-01 12:05:00,
2013-09-01 08:10:00,69.7,66.3,31.09,South,187,0.0,1.0,89,0.00,,---,0.02,VWS V14.00,2013-09-01 12:10:00,
2013-09-01 08:15:00,69.6,66.2,31.09,South,187,2.0,3.0,89,0.00,,---,0.02,VWS V14.00,2013-09-01 12:15:00,
2013-09-01 08:20:00,69.6,66.2,31.09,South,191,2.0,3.0,89,0.00,,---,0.02,VWS V14.00,2013-09-01 12:20:00,
2013-09-01 08:25:00,69.6,66.2,31.09,South,191,0.0,3.0,89,0.00,,---,0.02,VWS V14.00,2013-09-01 12:25:00,
2013-09-01 08:30:00,69.7,66.3,31.09,South,191,0.0,3.0,89,0.00,,---,0.02,VWS V14.00,2013-09-01 12:30:00,
2013-09-01 08:35:00,69.7,66.3,31.09,South,191,0.0,3.0,89,0.00,,---,0.02,VWS V14.00,2013-09-01 12:35:00,
2013-09-01 08:40:00,69.8,66.7,31.09,South,191,0.0,0.0,90,0.00,,---,0.02,VWS V14.00,2013-09-01 12:40:00,
2013-09-01 08:45:00,70.1,66.7,31.09,South,191,0.0,0.0,89,0.00,,---,0.02,VWS V14.00,2013-09-01 12:45:00,
2013-09-01 08:50:00,70.2,66.8,31.09,South,191,0.0,0.0,89,0.00,,---,0.02,VWS V14.00,2013-09-01 12:50:00,
2013-09-01 08:55:00,70.3,66.9,31.09,South,191,0.0,0.0,89,0.00,,---,0.02,VWS V14.00,2013-09-01 12:55:00,
2013-09-01 09:00:00,70.4,67.0,31.09,South,191,0.0,1.0,89,0.00,,---,0.02,VWS V14.00,2013-09-01 13:00:00,
2013-09-01 09:05:00,70.5,67.1,31.09,South,191,0.0,1.0,89,0.00,,---,0.02,VWS V14.00,2013-09-01 13:05:00,
2013-09-01 09:10:00,70.6,66.9,31.09,South,191,0.0,0.0,88,0.00,,---,0.02,VWS V14.00,2013-09-01 13:10:00,
2013-09-01 09:15:00,70.9,67.2,31.09,South,191,0.0,1.0,88,0.00,,---,0.02,VWS V14.00,2013-09-01 13:15:00,
2013-09-01 09:20:00,71.3,67.6,31.09,South,191,0.0,1.0,88,0.00,,---,0.02,VWS V14.00,2013-09-01 13:20:00,
2013-09-01 09:25:00,71.7,67.6,31.09,South,191,0.0,1.0,87,0.00,,---,0.02,VWS V14.00,2013-09-01 13:25:00,
2013-09-01 09:30:00,71.8,67.7,31.09,South,191,3.0,3.0,87,0.00,,---,0.02,VWS V14.00,2013-09-01 13:30:00,
2013-09-01 09:36:00,71.9,67.5,31.09,SSE,158,3.0,5.0,86,0.00,,---,0.02,VWS V14.00,2013-09-01 13:36:00,
2013-09-01 09:41:00,72.0,67.6,31.09,SSE,165,6.0,7.0,86,0.00,,---,0.02,VWS V14.00,2013-09-01 13:41:00,
2013-09-01 09:46:00,72.2,67.8,31.09,South,171,2.0,10.0,86,0.00,,---,0.02,VWS V14.00,2013-09-01 13:46:00,
2013-09-01 09:51:00,72.3,67.5,31.09,SSW,200,6.0,10.0,85,0.00,,---,0.02,VWS V14.00,2013-09-01 13:51:00,
2013-09-01 09:56:00,72.5,67.7,31.09,SSE,158,6.0,10.0,85,0.00,,---,0.02,VWS V14.00,2013-09-01 13:56:00,
2013-09-01 10:01:00,72.6,67.8,31.09,South,173,5.0,10.0,85,0.00,,---,0.02,VWS V14.00,2013-09-01 14:01:00,
2013-09-01 10:06:00,72.8,68.0,31.09,SSE,154,13.0,13.0,85,0.00,,---,0.02,VWS V14.00,2013-09-01 14:06:00,
2013-09-01 10:11:00,72.8,67.7,31.09,SSE,167,10.0,13.0,84,0.00,,---,0.02,VWS V14.00,2013-09-01 14:11:00,
2013-09-01 10:16:00,72.9,68.1,31.09,South,171,12.0,14.0,85,0.00,,---,0.02,VWS V14.00,2013-09-01 14:16:00,
2013-09-01 10:21:00,72.9,68.1,31.09,SSE,150,9.0,14.0,85,0.00,,---,0.02,VWS V14.00,2013-09-01 14:21:00,
2013-09-01 10:26:00,72.9,68.1,31.09,SSE,149,12.0,14.0,85,0.00,,---,0.02,VWS V14.00,2013-09-01 14:26:00,
2013-09-01 10:31:00,73.1,68.3,31.09,SSE,150,9.0,15.0,85,0.00,,---,0.02,VWS V14.00,2013-09-01 14:31:00,
2013-09-01 10:36:00,73.1,68.0,31.09,SSE,153,7.0,15.0,84,0.00,,---,0.02,VWS V14.00,2013-09-01 14:36:00,
2013-09-01 10:41:00,73.4,67.9,31.09,SE,146,6.0,12.0,83,0.00,,---,0.02,VWS V14.00,2013-09-01 14:41:00,
2013-09-01 10:46:00,73.5,68.0,31.09,SSE,163,7.0,12.0,83,0.00,,---,0.02,VWS V14.00,2013-09-01 14:46:00,
2013-09-01 10:51:00,73.7,68.2,31.09,SSE,160,9.0,12.0,83,0.00,,---,0.02,VWS V14.00,2013-09-01 14:51:00,
2013-09-01 10:56:00,74.0,68.5,31.09,SSE,165,5.0,12.0,83,0.00,,---,0.02,VWS V14.00,2013-09-01 14:56:00,
2013-09-01 11:01:00,74.3,68.8,31.09,SSE,155,7.0,12.0,83,0.00,,---,0.02,VWS V14.00,2013-09-01 15:01:00,
2013-09-01 11:06:00,74.3,68.8,31.09,SE,138,8.0,12.0,83,0.00,,---,0.02,VWS V14.00,2013-09-01 15:06:00,
2013-09-01 11:11:00,74.4,68.9,31.09,SSE,149,9.0,11.0,83,0.00,,---,0.02,VWS V14.00,2013-09-01 15:11:00,
2013-09-01 11:16:00,74.6,69.1,31.09,SE,142,8.0,11.0,83,0.00,,---,0.02,VWS V14.00,2013-09-01 15:16:00,
2013-09-01 11:22:00,75.1,69.6,31.09,SE,136,7.0,13.0,83,0.00,,---,0.02,VWS V14.00,2013-09-01 15:22:00,
2013-09-01 11:27:00,75.3,69.1,31.09,SSE,151,7.0,13.0,81,0.00,,---,0.02,VWS V14.00,2013-09-01 15:27:00,
2013-09-01 11:32:00,75.6,69.7,31.16,SSE,150,3.0,13.0,82,0.00,,---,0.02,VWS V14.00,2013-09-01 15:32:00,
2013-09-01 11:37:00,75.8,69.6,31.16,SSE,158,6.0,13.0,81,0.00,,---,0.02,VWS V14.00,2013-09-01 15:37:00,
2013-09-01 11:42:00,76.4,69.8,31.16,SSE,156,11.0,13.0,80,0.00,,---,0.02,VWS V14.00,2013-09-01 15:42:00,
2013-09-01 11:47:00,76.9,69.5,31.16,SSE,148,13.0,13.0,78,0.00,,---,0.02,VWS V14.00,2013-09-01 15:47:00,
2013-09-01 11:52:00,77.2,69.8,31.16,SSE,152,5.0,15.0,78,0.00,,---,0.02,VWS V14.00,2013-09-01 15:52:00,
2013-09-01 11:57:00,77.4,70.0,31.16,SE,146,8.0,15.0,78,0.00,,---,0.02,VWS V14.00,2013-09-01 15:57:00,
2013-09-01 12:02:00,77.6,70.2,31.16,South,188,10.0,15.0,78,0.00,,---,0.02,VWS V14.00,2013-09-01 16:02:00,
2013-09-01 12:07:00,77.7,69.9,31.16,SSE,150,9.0,15.0,77,0.00,,---,0.02,VWS V14.00,2013-09-01 16:07:00,
2013-09-01 12:12:00,77.7,70.3,31.16,SE,145,7.0,9.0,78,0.00,,---,0.02,VWS V14.00,2013-09-01 16:12:00,
2013-09-01 12:17:00,77.7,69.9,31.16,SE,133,6.0,10.0,77,0.00,,---,0.02,VWS V14.00,2013-09-01 16:17:00,
2013-09-01 12:22:00,77.9,70.5,31.16,SSE,157,6.0,10.0,78,0.00,,---,0.02,VWS V14.00,2013-09-01 16:22:00,
2013-09-01 12:27:00,78.0,70.2,31.16,SE,143,9.0,11.0,77,0.00,,---,0.02,VWS V14.00,2013-09-01 16:27:00,
2013-09-01 12:32:00,78.1,70.3,31.16,SE,136,5.0,11.0,77,0.00,,---,0.02,VWS V14.00,2013-09-01 16:32:00,
2013-09-01 12:37:00,78.4,70.6,31.16,SSE,152,5.0,5.0,77,0.00,,---,0.02,VWS V14.00,2013-09-01 16:37:00,
2013-09-01 12:42:00,78.7,71.3,31.16,SSE,167,5.0,7.0,78,0.00,,---,0.02,VWS V14.00,2013-09-01 16:42:00,
2013-09-01 12:47:00,78.8,71.0,31.16,SSE,161,4.0,7.0,77,0.00,,---,0.02,VWS V14.00,2013-09-01 16:47:00,
2013-09-01 12:52:00,79.3,71.5,31.16,SSW,192,3.0,7.0,77,0.00,,---,0.02,VWS V14.00,2013-09-01 16:52:00,
2013-09-01 12:57:00,79.4,71.2,31.16,SSE,160,3.0,7.0,76,0.00,,---,0.02,VWS V14.00,2013-09-01 16:57:00,
2013-09-01 13:02:00,79.6,71.0,31.16,SSE,157,3.0,7.0,75,0.00,,---,0.02,VWS V14.00,2013-09-01 17:02:00,
2013-09-01 13:08:00,79.8,71.6,31.16,South,188,5.0,9.0,76,0.00,,---,0.02,VWS V14.00,2013-09-01 17:08:00,
2013-09-01 13:13:00,79.9,71.3,31.16,SSW,204,4.0,9.0,75,0.00,,---,0.02,VWS V14.00,2013-09-01 17:13:00,
2013-09-01 13:18:00,80.0,71.8,31.16,SSW,199,3.0,9.0,76,0.00,,---,0.02,VWS V14.00,2013-09-01 17:18:00,
2013-09-01 13:23:00,80.1,71.5,31.16,South,173,5.0,9.0,75,0.00,,---,0.02,VWS V14.00,2013-09-01 17:23:00,
2013-09-01 13:28:00,80.1,72.2,31.16,South,182,0.0,9.0,77,0.00,,---,0.02,VWS V14.00,2013-09-01 17:28:00,
2013-09-01 13:33:00,80.2,71.9,31.16,SSW,192,3.0,9.0,76,0.00,,---,0.02,VWS V14.00,2013-09-01 17:33:00,
2013-09-01 13:38:00,80.5,72.6,31.16,South,188,0.0,3.0,77,0.00,,---,0.02,VWS V14.00,2013-09-01 17:38:00,
2013-09-01 13:43:00,80.5,72.2,31.16,South,191,5.0,11.0,76,0.00,,---,0.02,VWS V14.00,2013-09-01 17:43:00,
2013-09-01 13:48:00,80.6,72.3,31.16,SSW,205,1.0,11.0,76,0.00,,---,0.02,VWS V14.00,2013-09-01 17:48:00,
2013-09-01 13:53:00,80.8,72.1,31.16,South,176,6.0,11.0,75,0.00,,---,0.02,VWS V14.00,2013-09-01 17:53:00,
2013-09-01 13:58:00,81.0,72.7,31.16,South,180,2.0,11.0,76,0.00,,---,0.02,VWS V14.00,2013-09-01 17:58:00,
2013-09-01 14:03:00,81.1,72.8,31.16,South,173,4.0,11.0,76,0.00,,---,0.02,VWS V14.00,2013-09-01 18:03:00,
2013-09-01 14:09:00,81.4,73.5,31.16,SSE,167,5.0,5.0,77,0.00,,---,0.02,VWS V14.00,2013-09-01 18:09:00,
2013-09-01 14:14:00,81.4,72.3,31.16,SSW,200,4.0,12.0,74,0.00,,---,0.02,VWS V14.00,2013-09-01 18:14:00,
2013-09-01 14:19:00,81.2,72.5,31.16,South,175,6.0,12.0,75,0.00,,---,0.02,VWS V14.00,2013-09-01 18:19:00,
2013-09-01 14:24:00,81.3,73.0,31.16,South,171,0.0,12.0,76,0.00,,---,0.02,VWS V14.00,2013-09-01 18:24:00,
2013-09-01 14:29:00,81.7,73.0,31.16,West,275,3.0,12.0,75,0.00,,---,0.02,VWS V14.00,2013-09-01 18:29:00,
2013-09-01 14:34:00,81.7,72.6,31.16,WNW,283,5.0,12.0,74,0.00,,---,0.02,VWS V14.00,2013-09-01 18:34:00,
2013-09-01 14:39:00,81.7,72.6,31.16,West,267,0.0,5.0,74,0.00,,---,0.02,VWS V14.00,2013-09-01 18:39:00,
2013-09-01 14:44:00,81.5,72.4,31.16,SSW,201,4.0,7.0,74,0.00,,---,0.02,VWS V14.00,2013-09-01 18:44:00,
2013-09-01 14:49:00,81.7,72.6,31.16,SSW,200,0.0,7.0,74,0.00,,---,0.02,VWS V14.00,2013-09-01 18:49:00,
2013-09-01 14:54:00,81.8,72.7,31.16,SE,138,7.0,7.0,74,0.00,,---,0.02,VWS V14.00,2013-09-01 18:54:00,
2013-09-01 14:59:00,81.5,73.2,31.16,SSE,150,5.0,9.0,76,0.00,,---,0.02,VWS V14.00,2013-09-01 18:59:00,
2013-09-01 15:04:00,81.5,73.2,31.16,SSE,167,13.0,13.0,76,0.00,,---,0.02,VWS V14.00,2013-09-01 19:04:00,
2013-09-01 15:09:00,81.6,72.9,31.16,SSE,161,9.0,9.0,75,0.00,,---,0.02,VWS V14.00,2013-09-01 19:09:00,
2013-09-01 15:14:00,81.6,73.3,31.16,SSE,155,5.0,10.0,76,0.00,,---,0.02,VWS V14.00,2013-09-01 19:14:00,
2013-09-01 15:19:00,81.6,72.9,31.16,SSE,160,6.0,13.0,75,0.00,,---,0.02,VWS V14.00,2013-09-01 19:19:00,
2013-09-01 15:24:00,81.9,72.4,31.16,South,170,6.0,13.0,73,0.00,,---,0.02,VWS V14.00,2013-09-01 19:24:00,
2013-09-01 15:29:00,82.0,72.5,31.16,SSE,155,10.0,14.0,73,0.00,,---,0.02,VWS V14.00,2013-09-01 19:29:00,
2013-09-01 15:34:00,82.3,72.4,31.16,SSE,163,8.0,14.0,72,0.00,,---,0.02,VWS V14.00,2013-09-01 19:34:00,
2013-09-01 15:39:00,82.5,73.0,31.16,SSE,168,5.0,9.0,73,0.00,,---,0.02,VWS V14.00,2013-09-01 19:39:00,
2013-09-01 15:44:00,82.7,72.8,31.16,South,172,4.0,9.0,72,0.00,,---,0.02,VWS V14.00,2013-09-01 19:44:00,
2013-09-01 15:50:00,83.0,72.6,31.16,SSE,164,3.0,11.0,71,0.00,,---,0.02,VWS V14.00,2013-09-01 19:50:00,
2013-09-01 15:55:00,83.4,72.6,31.16,SSW,198,9.0,11.0,70,0.00,,---,0.02,VWS V14.00,2013-09-01 19:55:00,
2013-09-01 16:00:00,83.6,71.9,31.16,SSW,200,6.0,13.0,68,0.00,,---,0.02,VWS V14.00,2013-09-01 20:00:00,
2013-09-01 16:05:00,83.9,72.2,31.16,SW,224,0.0,13.0,68,0.00,,---,0.02,VWS V14.00,2013-09-01 20:05:00,
2013-09-01 16:10:00,84.3,72.6,31.16,SW,223,1.0,1.0,68,0.00,,---,0.02,VWS V14.00,2013-09-01 20:10:00,
2013-09-01 16:15:00,84.4,72.7,31.16,SSW,201,0.0,8.0,68,0.00,,---,0.02,VWS V14.00,2013-09-01 20:15:00,
2013-09-01 16:21:00,84.4,72.7,31.16,WSW,243,8.0,8.0,68,0.00,,---,0.02,VWS V14.00,2013-09-01 20:21:00,
2013-09-01 16:26:00,84.6,72.9,31.16,SSW,203,2.0,9.0,68,0.00,,---,0.02,VWS V14.00,2013-09-01 20:26:00,
2013-09-01 16:31:00,84.7,72.5,31.16,SSW,202,3.0,9.0,67,0.00,,---,0.02,VWS V14.00,2013-09-01 20:31:00,
2013-09-01 16:36:00,84.6,73.7,31.16,WSW,238,0.0,9.0,70,0.00,,---,0.02,VWS V14.00,2013-09-01 20:36:00,
2013-09-01 16:41:00,84.5,73.2,31.16,SSW,207,0.0,2.0,69,0.00,,---,0.02,VWS V14.00,2013-09-01 20:41:00,
2013-09-01 16:46:00,85.1,74.2,31.16,West,260,6.0,6.0,70,0.00,,---,0.02,VWS V14.00,2013-09-01 20:46:00,
2013-09-01 16:52:00,85.3,73.1,31.16,South,190,2.0,7.0,67,0.00,,---,0.02,VWS V14.00,2013-09-01 20:52:00,
2013-09-01 16:57:00,85.2,73.4,31.16,SW,217,4.0,7.0,68,0.00,,---,0.02,VWS V14.00,2013-09-01 20:57:00,
2013-09-01 17:02:00,85.3,72.7,31.16,NW,317,3.0,7.0,66,0.00,,---,0.02,VWS V14.00,2013-09-01 21:02:00,
2013-09-01 17:07:00,85.7,72.6,31.16,WNW,289,1.0,7.0,65,0.00,,---,0.02,VWS V14.00,2013-09-01 21:07:00,
2013-09-01 17:12:00,85.8,72.7,31.16,SSW,194,0.0,5.0,65,0.00,,---,0.02,VWS V14.00,2013-09-01 21:12:00,
2013-09-01 17:17:00,85.9,72.3,31.16,WSW,240,0.0,8.0,64,0.00,,---,0.02,VWS V14.00,2013-09-01 21:17:00,
2013-09-01 17:22:00,86.0,71.9,31.16,West,279,0.0,9.0,63,0.00,,---,0.02,VWS V14.00,2013-09-01 21:22:00,
2013-09-01 17:27:00,85.7,72.1,26.88,WSW,254,0.0,9.0,64,0.00,,---,0.02,VWS V14.00,2013-09-01 21:27:00,
2013-09-01 17:32:00,85.7,72.6,26.88,WSW,257,0.0,9.0,65,0.00,,---,0.02,VWS V14.00,2013-09-01 21:32:00,
2013-09-01 17:38:00,85.7,72.1,26.88,SSW,209,0.0,0.0,64,0.00,,---,0.02,VWS V14.00,2013-09-01 21:38:00,
2013-09-01 17:43:00,85.8,72.2,26.88,SSW,213,2.0,4.0,64,0.00,,---,0.02,VWS V14.00,2013-09-01 21:43:00,
2013-09-01 17:48:00,85.7,72.6,26.88,WSW,241,1.0,7.0,65,0.00,,---,0.02,VWS V14.00,2013-09-01 21:48:00,
2013-09-01 17:53:00,85.6,72.5,26.88,WSW,241,0.0,7.0,65,0.00,,---,0.02,VWS V14.00,2013-09-01 21:53:00,
2013-09-01 17:58:00,85.7,73.0,26.88,WSW,256,0.0,7.0,66,0.00,,---,0.02,VWS V14.00,2013-09-01 21:58:00,
2013-09-01 18:03:00,85.7,73.0,26.88,West,259,0.0,7.0,66,0.00,,---,0.02,VWS V14.00,2013-09-01 22:03:00,
2013-09-01 18:08:00,85.4,72.8,26.88,West,272,5.0,6.0,66,0.00,,---,0.02,VWS V14.00,2013-09-01 22:08:00,
2013-09-01 18:14:00,84.8,72.6,26.88,SW,232,0.0,6.0,67,0.00,,---,0.02,VWS V14.00,2013-09-01 22:14:00,
2013-09-01 18:19:00,84.5,73.2,26.88,SW,232,0.0,6.0,69,0.00,,---,0.02,VWS V14.00,2013-09-01 22:19:00,
2013-09-01 18:24:00,84.3,74.3,26.88,SW,232,0.0,6.0,72,0.00,,---,0.02,VWS V14.00,2013-09-01 22:24:00,
2013-09-01 18:29:00,83.7,74.5,26.88,SW,232,0.0,6.0,74,0.00,,---,0.02,VWS V14.00,2013-09-01 22:29:00,
2013-09-01 18:35:00,83.1,74.0,26.88,SW,232,0.0,6.0,74,0.00,,---,0.02,VWS V14.00,2013-09-01 22:35:00,
2013-09-01 18:40:00,82.7,73.6,26.88,SW,232,0.0,1.0,74,0.00,,---,0.02,VWS V14.00,2013-09-01 22:40:00,
2013-09-01 18:45:00,82.3,74.0,26.88,SW,232,0.0,1.0,76,0.00,,---,0.02,VWS V14.00,2013-09-01 22:45:00,
2013-09-01 18:50:00,82.0,74.1,26.88,SW,232,0.0,1.0,77,0.00,,---,0.02,VWS V14.00,2013-09-01 22:50:00,
2013-09-01 18:55:00,81.5,74.0,26.88,SW,232,1.0,1.0,78,0.00,,---,0.02,VWS V14.00,2013-09-01 22:55:00,
2013-09-01 19:00:00,80.8,72.9,26.88,SW,232,1.0,3.0,77,0.00,,---,0.02,VWS V14.00,2013-09-01 23:00:00,
2013-09-01 19:05:00,80.4,73.3,26.88,SW,232,0.0,3.0,79,0.00,,---,0.02,VWS V14.00,2013-09-01 23:05:00,
2013-09-01 19:10:00,80.2,73.1,26.88,SW,232,0.0,2.0,79,0.00,,---,0.02,VWS V14.00,2013-09-01 23:10:00,
2013-09-01 19:16:00,79.9,72.8,26.88,SW,232,0.0,2.0,79,0.00,,---,0.02,VWS V14.00,2013-09-01 23:16:00,
2013-09-01 19:21:00,79.8,72.3,26.88,SW,232,0.0,2.0,78,0.00,,---,0.02,VWS V14.00,2013-09-01 23:21:00,
2013-09-01 19:26:00,79.9,72.4,26.88,SW,232,0.0,2.0,78,0.00,,---,0.02,VWS V14.00,2013-09-01 23:26:00,
2013-09-01 19:31:00,80.1,72.6,26.88,SW,233,1.0,3.0,78,0.00,,---,0.02,VWS V14.00,2013-09-01 23:31:00,
2013-09-01 19:36:00,80.2,72.3,26.88,SW,236,0.0,3.0,77,0.00,,---,0.02,VWS V14.00,2013-09-01 23:36:00,
2013-09-01 19:41:00,80.2,72.3,26.88,SW,236,0.0,1.0,77,0.00,,---,0.02,VWS V14.00,2013-09-01 23:41:00,
2013-09-01 19:46:00,80.2,72.7,26.88,SW,236,0.0,1.0,78,0.00,,---,0.02,VWS V14.00,2013-09-01 23:46:00,
2013-09-01 19:51:00,80.0,72.5,26.88,SW,236,0.0,1.0,78,0.00,,---,0.02,VWS V14.00,2013-09-01 23:51:00,
2013-09-01 19:56:00,79.8,72.7,26.88,SW,236,0.0,1.0,79,0.00,,---,0.02,VWS V14.00,2013-09-01 23:56:00,
2013-09-01 20:01:00,79.3,72.2,26.88,SW,236,0.0,1.0,79,0.00,,---,0.02,VWS V14.00,2013-09-02 00:01:00,
2013-09-01 20:06:00,78.9,72.2,26.88,SW,236,0.0,1.0,80,0.00,,---,0.02,VWS V14.00,2013-09-02 00:06:00,
2013-09-01 20:11:00,78.4,72.1,26.88,SW,236,2.0,3.0,81,0.00,,---,0.02,VWS V14.00,2013-09-02 00:11:00,
2013-09-01 20:17:00,77.8,71.9,26.88,SW,236,0.0,3.0,82,0.00,,---,0.02,VWS V14.00,2013-09-02 00:17:00,
2013-09-01 20:22:00,77.4,71.5,26.88,SW,236,0.0,3.0,82,0.00,,---,0.02,VWS V14.00,2013-09-02 00:22:00,
2013-09-01 20:27:00,77.1,71.5,26.88,SW,236,2.0,3.0,83,0.00,,---,0.02,VWS V14.00,2013-09-02 00:27:00,
2013-09-01 20:32:00,76.8,71.2,26.88,SW,236,0.0,3.0,83,0.00,,---,0.02,VWS V14.00,2013-09-02 00:32:00,
2013-09-01 20:37:00,76.5,71.3,26.88,SW,236,0.0,4.0,84,0.00,,---,0.02,VWS V14.00,2013-09-02 00:37:00,
2013-09-01 20:42:00,76.1,71.3,26.88,SW,236,0.0,1.0,85,0.00,,---,0.02,VWS V14.00,2013-09-02 00:42:00,
2013-09-01 20:47:00,75.8,71.0,26.88,SW,236,0.0,1.0,85,0.00,,---,0.02,VWS V14.00,2013-09-02 00:47:00,
2013-09-01 20:52:00,75.6,70.8,26.88,SW,236,0.0,1.0,85,0.00,,---,0.02,VWS V14.00,2013-09-02 00:52:00,
2013-09-01 20:57:00,75.6,70.8,26.88,SW,236,0.0,3.0,85,0.00,,---,0.02,VWS V14.00,2013-09-02 00:57:00,
2013-09-01 21:02:00,75.6,70.8,26.88,SW,236,0.0,3.0,85,0.00,,---,0.02,VWS V14.00,2013-09-02 01:02:00,
2013-09-01 21:07:00,75.5,71.0,26.88,SW,236,0.0,3.0,86,0.00,,---,0.02,VWS V14.00,2013-09-02 01:07:00,
2013-09-01 21:12:00,75.4,70.6,26.88,SW,236,0.0,0.0,85,0.00,,---,0.02,VWS V14.00,2013-09-02 01:12:00,
2013-09-01 21:17:00,75.2,70.7,26.88,SW,236,0.0,0.0,86,0.00,,---,0.02,VWS V14.00,2013-09-02 01:17:00,
2013-09-01 21:22:00,75.1,70.6,26.88,SW,236,0.0,0.0,86,0.00,,---,0.02,VWS V14.00,2013-09-02 01:22:00,
2013-09-01 21:27:00,75.0,70.5,26.88,SW,236,0.0,0.0,86,0.00,,---,0.02,VWS V14.00,2013-09-02 01:27:00,
2013-09-01 21:33:00,74.8,70.7,26.88,SW,236,0.0,0.0,87,0.00,,---,0.02,VWS V14.00,2013-09-02 01:33:00,
2013-09-01 21:38:00,74.7,70.6,26.88,SW,236,0.0,0.0,87,0.00,,---,0.02,VWS V14.00,2013-09-02 01:38:00,
2013-09-01 21:43:00,74.5,70.4,26.88,SW,236,0.0,0.0,87,0.00,,---,0.02,VWS V14.00,2013-09-02 01:43:00,
2013-09-01 21:48:00,74.3,70.2,26.88,SW,236,0.0,0.0,87,0.00,,---,0.02,VWS V14.00,2013-09-02 01:48:00,
2013-09-01 21:53:00,74.3,70.2,26.88,SW,236,0.0,0.0,87,0.00,,---,0.02,VWS V14.00,2013-09-02 01:53:00,
2013-09-01 21:58:00,74.2,70.1,26.88,SW,236,0.0,0.0,87,0.00,,---,0.02,VWS V14.00,2013-09-02 01:58:00,
2013-09-01 22:03:00,74.1,70.0,26.88,SW,236,2.0,2.0,87,0.00,,---,0.02,VWS V14.00,2013-09-02 02:03:00,
2013-09-01 22:08:00,73.9,70.1,26.88,SW,236,0.0,0.0,88,0.00,,---,0.02,VWS V14.00,2013-09-02 02:08:00,
2013-09-01 22:13:00,73.7,69.9,26.88,SW,236,0.0,2.0,88,0.00,,---,0.02,VWS V14.00,2013-09-02 02:13:00,
2013-09-01 22:18:00,73.6,69.8,26.88,SW,236,0.0,2.0,88,0.00,,---,0.02,VWS V14.00,2013-09-02 02:18:00,
2013-09-01 22:23:00,73.5,69.7,26.88,SW,236,0.0,3.0,88,0.00,,---,0.02,VWS V14.00,2013-09-02 02:23:00,
2013-09-01 22:28:00,73.3,69.5,26.88,SW,236,3.0,3.0,88,0.00,,---,0.02,VWS V14.00,2013-09-02 02:28:00,
2013-09-01 22:33:00,73.1,69.3,26.88,SW,236,3.0,3.0,88,0.00,,---,0.02,VWS V14.00,2013-09-02 02:33:00,
2013-09-01 22:39:00,72.9,69.5,26.88,SW,236,1.0,1.0,89,0.00,,---,0.02,VWS V14.00,2013-09-02 02:39:00,
2013-09-01 22:44:00,72.8,69.4,26.88,SW,236,4.0,4.0,89,0.00,,---,0.02,VWS V14.00,2013-09-02 02:44:00,
2013-09-01 22:49:00,72.9,69.5,26.88,SW,236,3.0,4.0,89,0.00,,---,0.02,VWS V14.00,2013-09-02 02:49:00,
2013-09-01 22:54:00,72.9,69.5,26.88,SW,236,0.0,4.0,89,0.00,,---,0.02,VWS V14.00,2013-09-02 02:54:00,
2013-09-01 22:59:00,72.8,69.4,26.88,WSW,237,2.0,4.0,89,0.00,,---,0.02,VWS V14.00,2013-09-02 02:59:00,
2013-09-01 23:04:00,72.7,69.3,26.88,WSW,237,0.0,4.0,89,0.00,,---,0.02,VWS V14.00,2013-09-02 03:04:00,
2013-09-01 23:09:00,72.5,69.1,26.88,WSW,237,0.0,2.0,89,0.00,,---,0.02,VWS V14.00,2013-09-02 03:09:00,
2013-09-01 23:14:00,72.4,69.0,26.88,WSW,237,0.0,4.0,89,0.00,,---,0.02,VWS V14.00,2013-09-02 03:14:00,
2013-09-01 23:19:00,72.5,69.4,26.88,WSW,237,2.0,4.0,90,0.00,,---,0.02,VWS V14.00,2013-09-02 03:19:00,
2013-09-01 23:24:00,72.4,69.3,26.88,WSW,237,0.0,4.0,90,0.00,,---,0.02,VWS V14.00,2013-09-02 03:24:00,
2013-09-01 23:29:00,72.3,69.2,26.88,WSW,237,0.0,4.0,90,0.00,,---,0.02,VWS V14.00,2013-09-02 03:29:00,
2013-09-01 23:34:00,72.2,69.1,26.88,WSW,237,0.0,4.0,90,0.00,,---,0.02,VWS V14.00,2013-09-02 03:34:00,
2013-09-01 23:39:00,72.1,69.0,26.88,WSW,237,0.0,2.0,90,0.00,,---,0.02,VWS V14.00,2013-09-02 03:39:00,
2013-09-01 23:44:00,72.1,69.0,26.88,WSW,237,2.0,3.0,90,0.00,,---,0.02,VWS V14.00,2013-09-02 03:44:00,
2013-09-01 23:49:00,72.1,69.0,26.88,WSW,237,3.0,3.0,90,0.00,,---,0.02,VWS V14.00,2013-09-02 03:49:00,
2013-09-01 23:55:00,72.2,69.1,26.88,WSW,237,0.0,3.0,90,0.00,,---,0.02,VWS V14.00,2013-09-02 03:55:00,